Location: Newark
(45.2500°N, 7.5833°E)
Time: 22:15:48
(UTC+00:00)

Vanguard 3 - Pass Details

Date: 03 February 2020
Orbit: 508 x 3263 km, 33.3° (Epoch: 19 February)

Event Time Altitude Azimuth Distance (km) Brightness Sun altitude
Rises 15:39:23 0° 247° (WSW) 6,149 13.7 8.4°
Reaches altitude 10° 15:43:06 10° 243° (WSW) 5,424 14.2 7.8°
Maximum altitude 16:00:05 56° 172° (S) 3,641 10.7 5.3°
Drops below altitude 10° 16:18:38 10° 102° (ESE) 5,872 11.1 2.4°
Sets 16:22:51 0° 98° (E) 6,664 11.3 1.7°
